East Milton, MA

8:51 AM EDT on September 21, 2017 (GMT -0400)
East Milton

Weather History for KMQE - July, 2013

Change the Weather History Date:

Thursday, July 4, 2013

  Actual Average (KOWD) Record (KOWD)
Temperature  
Mean Temperature 80 °F -  
Max Temperature 90 °F 81 °F 98 °F (2002)
Min Temperature 72 °F 58 °F 48 °F (2005)
Cooling Degree Days 16    
Growing Degree Days 30 (Base 50)    
Moisture  
Dew Point 71 °F    
Average Humidity 75    
Maximum Humidity 93    
Minimum Humidity 55    
Precipitation  
Precipitation 0.00 in - - ()
Sea Level Pressure  
Sea Level Pressure 30.19 in    
Wind  
Wind Speed 12 mph (WSW)    
Max Wind Speed 14 mph    
Max Gust Speed 25 mph    
Averages and records for this station are not official NWS values.
T = Trace of Precipitation, MM = Missing Value Source: NWS Daily Summary

Daily Weather History Graph

Daily Weather History Graph

Search for Another Location

Airport or City:

Trip Planner

Search our weather history database for the weather conditions in past years. The results will help you decide how hot, cold, wet, or windy it might be!

Date:

Astronomy

Jul. 04, 2013 Rise Set
Actual Time 5:13 AM EDT 8:23 PM EDT
Civil Twilight 4:39 AM EDT 8:58 PM EDT
Nautical Twilight 3:55 AM EDT 9:42 PM EDT
Astronomical Twilight 3:02 AM EDT 10:34 PM EDT
Moon 2:29 AM EDT (7/4) 5:24 PM EDT (7/4)
Length of Visible Light 16h 18m
Length of Day
15h 10m
Waning Crescent, 11% of the Moon is Illuminated
Jul 4
Waning Crescent
Jul 8
New
Jul 15
First Quarter
Jul 22
Full
Jul 29
Last Quarter

Hourly Weather History & Observations

Time (EDT) Temp. Heat Index Dew Point Humidity Pressure Visibility Wind Dir Wind Speed Gust Speed Precip Events Conditions
12:54 AM 73.0 °F - 70.0 °F 90% 30.22 in - SW 13.8 mph - N/A   Unknown
1:54 AM 73.0 °F - 70.0 °F 90% 30.21 in - SW 11.5 mph - N/A   Unknown
2:54 AM 72.0 °F - 70.0 °F 93% 30.20 in - SW 12.7 mph - N/A   Unknown
3:54 AM 72.0 °F - 70.0 °F 93% 30.20 in - WSW 11.5 mph 19.6 mph N/A   Unknown
4:54 AM 72.0 °F - 70.0 °F 93% 30.21 in - WSW 11.5 mph - N/A   Unknown
5:54 AM 72.0 °F - 70.0 °F 93% 30.22 in - WSW 12.7 mph - N/A   Unknown
6:54 AM 73.9 °F - 71.1 °F 91% 30.23 in - WSW 11.5 mph - N/A   Unknown
7:54 AM 77.0 °F - 71.1 °F 82% 30.24 in - WSW 9.2 mph - N/A   Unknown
8:54 AM 81.0 °F 85.2 °F 72.0 °F 74% 30.24 in - WSW 6.9 mph - N/A   Unknown
9:54 AM 82.9 °F 88.0 °F 72.0 °F 69% 30.23 in - West 10.4 mph - N/A   Unknown
10:54 AM 84.9 °F 91.4 °F 73.0 °F 67% 30.23 in - WSW 9.2 mph - N/A   Unknown
12:54 PM 88.0 °F 93.8 °F 71.1 °F 57% 30.20 in - SW 10.4 mph - N/A   Unknown
1:54 PM 88.0 °F 94.7 °F 72.0 °F 59% 30.18 in - West 9.2 mph 16.1 mph N/A   Unknown
2:54 PM 89.1 °F 95.0 °F 71.1 °F 55% 30.17 in - SW 9.2 mph 21.9 mph N/A   Unknown
3:54 PM 89.1 °F 95.0 °F 71.1 °F 55% 30.15 in - WSW 12.7 mph 21.9 mph N/A   Unknown
4:54 PM 89.1 °F 95.0 °F 71.1 °F 55% 30.15 in - SW 13.8 mph 20.7 mph N/A   Unknown
5:54 PM 88.0 °F 93.8 °F 71.1 °F 57% 30.14 in - SW 13.8 mph 19.6 mph N/A   Unknown
6:54 PM 86.0 °F 92.2 °F 72.0 °F 63% 30.15 in - SW 10.4 mph 25.3 mph N/A   Unknown
7:54 PM 82.9 °F 88.0 °F 72.0 °F 69% 30.15 in - SSW 13.8 mph 20.7 mph N/A   Unknown
9:54 PM 79.0 °F - 72.0 °F 79% 30.17 in - SW 12.7 mph 21.9 mph N/A   Unknown
10:54 PM 78.1 °F - 71.1 °F 79% 30.17 in - SW 13.8 mph 21.9 mph N/A   Unknown
11:54 PM 77.0 °F - 71.1 °F 82% 30.17 in - SW 13.8 mph 20.7 mph N/A   Unknown